Tracking 19219 objects as of 20-Jul-2018
HD Live streaming from Space Station
objects crossing your sky now

IRIDIUM 38

Track IRIDIUM 38 now!
10-day predictions
IRIDIUM 38 is classified as:


NORAD ID: 25043
Int'l Code: 1997-069E
Perigee: 775.9 km
Apogee: 781.2 km
Inclination: 86.4 °
Period: 100.3 minutes
Semi major axis: 7149 km
RCS: 5.0293 m2 (large)
Launch date: November 9, 1997
Source: United States (US)
Launch site: AIR FORCE WESTERN TEST RANGE (AFWTR)
aabbcc
Your satellite tracking list
Your tracking list is empty




NASA's NSSDC Master Catalog

Two Line Element Set (TLE):
1 25043U 97069E   18201.50409673  .00000092  00000-0  24816-4 0  9997
2 25043  86.3963 212.1331 0003760  78.6590 281.5030 14.36099980 83891
Source of the keplerian elements: AFSPC